DW2913 Weather Reports


Display with metric or nautical units.
time (UTC)temp
F
wind
direction
speed
MPH
gust
MPH
rain 1hr
in
rain 24hr
in
rain mn
in
humidity
%
barometer
mb
20210124203526 22 0.0 0.0 0.00 0.02 0.02 84 1002.9
20210124203033 22 188 0.0 0.0 0.00 0.02 0.02 84 1003.1
20210124202541 22 188 0.0 0.0 0.00 0.02 0.02 84 1003.0
20210124202034 22 188 0.0 0.0 0.00 0.02 0.02 83 1002.9
20210124201534 22 188 0.0 0.0 0.00 0.02 0.02 83 1002.9
20210124201033 21 188 0.0 0.0 0.00 0.02 0.02 83 1002.9
20210124200523 21 188 0.0 0.0 0.00 0.02 0.02 83 1003.0
20210124200053 21 188 0.0 0.0 0.00 0.02 0.02 83 1003.0
20210124195523 22 194 0.0 0.0 0.00 0.02 0.02 83 1003.0
20210124195028 23 194 0.0 0.0 0.00 0.02 0.02 83 1003.0
20210124194529 24 196 0.0 0.0 0.00 0.02 0.02 83 1003.1
20210124194033 24 197 0.0 4.0 0.00 0.02 0.02 84 1003.1
20210124193524 24 196 0.0 4.0 0.00 0.02 0.02 84 1003.2
20210124193042 24 197 1.0 3.0 0.00 0.02 0.02 83 1003.0
20210124192524 24 200 1.0 3.0 0.00 0.02 0.02 83 1003.1
20210124192022 24 205 0.0 0.0 0.00 0.02 0.02 83 1003.3
20210124191530 24 205 0.0 0.0 0.00 0.02 0.02 83 1003.3
20210124191024 24 205 0.0 0.0 0.00 0.02 0.02 83 1003.3
20210124190526 24 205 0.0 0.0 0.00 0.02 0.02 83 1003.3
20210124190055 24 205 0.0 2.0 0.00 0.02 0.02 82 1003.2
20210124185532 24 213 0.0 2.0 0.00 0.02 0.02 82 1003.1
20210124185035 24 237 0.0 0.0 0.00 0.02 0.02 82 1003.1
20210124184532 25 239 0.0 0.0 0.00 0.02 0.02 82 1003.2
20210124184029 26 239 0.0 0.0 0.00 0.02 0.02 83 1003.2
20210124183531 26 239 0.0 0.0 0.00 0.02 0.02 83 1003.1
20210124183042 26 239 0.0 4.0 0.00 0.02 0.02 83 1003.2
20210124182521 26 239 0.0 4.0 0.00 0.02 0.02 82 1003.3
20210124182028 26 239 1.0 4.0 0.00 0.02 0.02 82 1003.3
20210124181522 26 239 1.0 5.0 0.00 0.02 0.02 82 1003.3
20210124181029 26 239 2.0 5.0 0.00 0.02 0.02 82 1003.2
20210124180526 26 239 3.0 4.0 0.00 0.02 0.02 82 1003.3
20210124180056 27 238 2.0 4.0 0.00 0.02 0.02 82 1003.4
20210124175523 27 238 1.0 4.0 0.00 0.02 0.02 82 1003.4
20210124175036 27 238 1.0 6.0 0.00 0.02 0.02 82 1003.4
20210124174538 27 238 2.0 6.0 0.00 0.02 0.02 82 1003.4
20210124174033 27 238 3.0 6.0 0.00 0.02 0.02 82 1003.3
20210124173527 28 250 3.0 6.0 0.00 0.02 0.02 82 1003.2
20210124173046 28 258 3.0 6.0 0.00 0.02 0.02 82 1003.2
20210124172526 28 258 3.0 6.0 0.00 0.02 0.02 82 1003.2
20210124172028 28 261 1.0 6.0 0.00 0.02 0.02 82 1003.2
20210124171531 28 242 0.0 6.0 0.00 0.02 0.02 82 1003.2
20210124171026 29 238 1.0 9.0 0.00 0.02 0.02 82 1003.2
20210124170530 29 239 3.0 8.0 0.00 0.02 0.02 81 1003.1
20210124170052 29 257 5.0 8.0 0.00 0.02 0.02 81 1003.1
20210124165532 29 254 5.0 9.0 0.00 0.02 0.02 81 1003.1
20210124165027 29 269 4.0 9.0 0.00 0.02 0.02 81 1003.0
20210124164547 29 254 4.0 9.0 0.00 0.02 0.02 81 1003.0
20210124164023 30 261 5.0 11.0 0.00 0.02 0.02 81 1003.0
20210124163525 30 272 5.0 11.0 0.00 0.02 0.02 81 1003.1
20210124163032 30 281 6.0 13.0 0.00 0.02 0.02 81 1003.0
20210124162524 30 261 6.0 13.0 0.00 0.02 0.02 81 1003.0
20210124162035 30 261 6.0 13.0 0.00 0.02 0.02 81 1002.9
20210124161524 30 254 6.0 10.0 0.00 0.02 0.02 81 1003.0
20210124161037 30 262 6.0 14.0 0.00 0.02 0.02 81 1003.0
20210124160522 31 254 7.0 13.0 0.00 0.02 0.02 81 1002.9
20210124160052 31 244 7.0 13.0 0.00 0.02 0.02 81 1002.9
20210124155524 31 277 7.0 13.0 0.00 0.02 0.02 81 1002.9
20210124155022 31 229 7.0 15.0 0.00 0.02 0.02 81 1002.8
20210124154527 31 230 6.0 15.0 0.00 0.02 0.02 80 1002.7
20210124154023 31 244 7.0 19.0 0.00 0.02 0.02 80 1002.7
20210124153529 31 254 9.0 19.0 0.00 0.02 0.02 80 1002.6
20210124153027 31 252 9.0 16.0 0.00 0.02 0.02 79 1002.6
20210124152523 31 223 8.0 16.0 0.00 0.02 0.02 80 1002.6
20210124152031 31 262 7.0 13.0 0.00 0.02 0.02 80 1002.6
20210124151540 31 242 6.0 13.0 0.00 0.02 0.02 80 1002.6
20210124151024 31 233 6.0 19.0 0.01 0.02 0.02 80 1002.6
20210124150523 31 257 6.0 19.0 0.01 0.02 0.02 80 1002.5
20210124150053 32 239 8.0 19.0 0.01 0.02 0.02 80 1002.6
20210124145523 32 254 9.0 22.0 0.01 0.02 0.02 79 1002.6
20210124145056 32 257 8.0 22.0 0.01 0.02 0.02 79 1002.6
20210124144558 32 270 9.0 22.0 0.01 0.02 0.02 79 1002.7
20210124144040 32 224 11.0 22.0 0.01 0.02 0.02 79 1002.6
20210124143549 32 279 11.0 22.0 0.01 0.02 0.02 79 1002.7
20210124143027 32 251 10.0 16.0 0.01 0.02 0.02 79 1002.6
20210124142547 32 238 10.0 16.0 0.01 0.02 0.02 78 1002.6
20210124142031 32 250 9.0 18.0 0.01 0.02 0.02 78 1002.7
20210124141528 32 248 10.0 18.0 0.01 0.02 0.01 79 1002.6
20210124141039 32 250 9.0 17.0 0.00 0.02 0.01 79 1002.6
20210124140537 32 247 8.0 17.0 0.00 0.02 0.01 79 1002.7
20210124140045 32 243 9.0 20.0 0.00 0.02 0.01 79 1002.6
20210124135530 32 298 10.0 21.0 0.00 0.02 0.01 78 1002.6
20210124135023 32 219 11.0 21.0 0.00 0.02 0.01 78 1002.6
20210124134531 32 244 11.0 22.0 0.00 0.02 0.01 78 1002.5
20210124134027 32 236 11.0 22.0 0.00 0.02 0.01 78 1002.5
20210124133541 32 265 12.0 21.0 0.00 0.02 0.01 77 1002.4
20210124133054 32 223 10.0 21.0 0.00 0.02 0.01 77 1002.4
20210124132526 33 278 10.0 24.0 0.00 0.02 0.01 77 1002.4
20210124132023 33 269 11.0 24.0 0.00 0.02 0.01 77 1002.3
20210124131531 32 252 11.0 21.0 0.00 0.02 0.01 77 1002.3
20210124131034 32 239 11.0 21.0 0.01 0.02 0.01 77 1002.3
20210124130527 32 229 12.0 17.0 0.01 0.02 0.01 77 1002.3
20210124130116 32 281 11.0 17.0 0.01 0.02 0.01 77 1002.3
20210124125527 32 223 9.0 17.0 0.01 0.02 0.01 78 1002.1
20210124125033 32 266 10.0 22.0 0.01 0.02 0.01 78 1002.2
20210124124531 32 233 10.0 24.0 0.01 0.02 0.01 78 1002.3
20210124124025 32 229 10.0 24.0 0.01 0.02 0.01 78 1002.0
20210124123526 32 265 10.0 21.0 0.01 0.02 0.01 78 1002.1
20210124123036 32 236 10.0 21.0 0.01 0.02 0.01 77 1002.1
20210124122525 32 217 10.0 24.0 0.01 0.02 0.01 78 1002.0
20210124122027 32 257 10.0 24.0 0.01 0.02 0.01 78 1002.0
20210124121542 32 257 10.0 24.0 0.01 0.02 0.01 78 1002.0
20210124121030 32 242 11.0 24.0 0.00 0.01 0.00 78 1002.0
20210124120529 32 213 12.0 24.0 0.00 0.01 0.00 78 1002.1
20210124120058 32 279 12.0 22.0 0.00 0.01 0.00 78 1002.1
20210124115525 31 252 12.0 22.0 0.00 0.01 0.00 78 1002.0
20210124115029 31 234 12.0 22.0 0.00 0.01 0.00 78 1002.1
20210124114533 31 221 10.0 26.0 0.00 0.01 0.00 79 1002.1
20210124114028 31 254 10.0 26.0 0.00 0.01 0.00 79 1002.2
20210124113530 31 279 12.0 20.0 0.00 0.01 0.00 79 1002.1
20210124113051 32 227 11.0 20.0 0.00 0.01 0.00 79 1002.0
20210124112532 32 176 10.0 21.0 0.00 0.01 0.00 78 1002.0
20210124112026 32 234 10.0 21.0 0.00 0.01 0.00 80 1002.0
20210124111540 32 217 11.0 28.0 0.00 0.01 0.00 80 1002.0
20210124111034 31 251 11.0 28.0 0.00 0.01 0.00 80 1002.1
20210124110532 32 223 12.0 23.0 0.00 0.01 0.00 80 1002.1
20210124110055 32 238 13.0 23.0 0.00 0.01 0.00 80 1002.1
20210124105525 32 200 11.0 23.0 0.00 0.01 0.00 80 1002.0
20210124105026 31 227 11.0 22.0 0.00 0.01 0.00 80 1002.1
20210124104600 31 234 12.0 20.0 0.00 0.01 0.00 80 1002.0
20210124104111 31 229 11.0 20.0 0.00 0.01 0.00 80 1001.9
20210124103531 31 250 10.0 19.0 0.00 0.01 0.00 80 1001.8
20210124103035 31 244 9.0 19.0 0.00 0.01 0.00 80 1001.9
20210124102527 31 213 9.0 20.0 0.00 0.01 0.00 80 1001.9
20210124102029 31 219 9.0 20.0 0.00 0.01 0.00 80 1001.9
20210124101526 31 230 9.0 20.0 0.00 0.01 0.00 80 1002.0
20210124101024 31 247 8.0 18.0 0.00 0.01 0.00 81 1001.9
20210124100528 31 233 8.0 22.0 0.00 0.01 0.00 81 1001.9
20210124100048 31 291 8.0 22.0 0.00 0.01 0.00 82 1001.9
20210124095524 31 252 8.0 22.0 0.00 0.01 0.00 82 1001.7
20210124095032 30 266 10.0 22.0 0.00 0.01 0.00 81 1001.8
20210124094543 31 262 9.0 21.0 0.00 0.01 0.00 81 1001.6
20210124094026 30 225 8.0 21.0 0.00 0.01 0.00 82 1001.6
20210124093544 30 255 10.0 21.0 0.00 0.01 0.00 82 1001.5
20210124093027 31 260 11.0 21.0 0.00 0.01 0.00 82 1001.5
20210124092530 31 215 10.0 21.0 0.00 0.01 0.00 82 1001.4
20210124092025 30 259 11.0 21.0 0.00 0.01 0.00 82 1001.4
20210124091529 30 262 10.0 21.0 0.00 0.01 0.00 82 1001.5
20210124091029 30 250 9.0 18.0 0.00 0.01 0.00 83 1001.5
20210124090529 30 249 10.0 19.0 0.00 0.01 0.00 83 1001.5
20210124090045 30 253 10.0 19.0 0.00 0.01 0.00 83 1001.5
20210124085553 30 247 11.0 19.0 0.00 0.01 0.00 83 1001.5
20210124085034 30 252 10.0 17.0 0.00 0.01 0.00 83 1001.2
20210124084528 30 237 10.0 17.0 0.00 0.01 0.00 83 1001.1
20210124084024 30 266 10.0 17.0 0.00 0.01 0.00 83 1001.2
20210124083527 30 248 10.0 18.0 0.00 0.01 0.00 83 1001.1
20210124083031 30 225 9.0 18.0 0.00 0.01 0.00 84 1001.1
20210124082525 30 271 9.0 22.0 0.00 0.01 0.00 84 1001.1
20210124082029 30 252 9.0 22.0 0.00 0.01 0.00 84 1001.0
20210124081528 31 252 9.0 22.0 0.00 0.01 0.00 84 1000.8
20210124081024 31 248 11.0 22.0 0.00 0.01 0.00 84 1000.9
20210124080531 31 265 10.0 15.0 0.00 0.01 0.00 84 1000.7
20210124080042 31 210 8.0 15.0 0.00 0.01 0.00 85 1000.6
20210124075544 31 225 8.0 15.0 0.00 0.01 0.00 86 1000.4
20210124075024 31 231 7.0 18.0 0.00 0.01 0.00 86 1000.3
20210124074526 31 229 8.0 19.0 0.00 0.01 0.00 86 1000.3
20210124074024 31 278 9.0 19.0 0.00 0.01 0.00 86 1000.2
20210124073526 31 253 9.0 19.0 0.00 0.01 0.00 86 1000.1
20210124073031 30 264 9.0 19.0 0.00 0.01 0.00 87 1000.1
20210124072525 30 181 9.0 18.0 0.00 0.01 0.00 87 1000.1
20210124072026 30 299 9.0 18.0 0.00 0.01 0.00 87 1000.0
20210124071542 30 261 9.0 18.0 0.00 0.01 0.00 87 999.9
20210124071026 31 267 10.0 20.0 0.00 0.01 0.00 87 999.9
20210124070535 31 244 10.0 18.0 0.00 0.01 0.00 87 999.7
20210124070052 31 253 9.0 18.0 0.00 0.01 0.00 87 999.6
20210124065524 30 241 8.0 18.0 0.00 0.01 0.00 87 999.5
20210124065026 30 267 8.0 18.0 0.00 0.01 0.00 87 999.6
20210124064527 30 285 8.0 14.0 0.00 0.01 0.00 87 999.5
20210124064026 30 232 7.0 14.0 0.00 0.01 0.00 88 999.4
20210124063530 31 239 8.0 15.0 0.00 0.01 0.00 88 999.4
20210124063041 31 274 8.0 15.0 0.00 0.01 0.00 88 999.4
20210124062525 31 244 7.0 18.0 0.00 0.01 0.00 88 999.3
20210124062027 31 265 7.0 18.0 0.00 0.01 0.00 88 999.3
20210124061537 31 258 8.0 18.0 0.00 0.01 0.00 88 999.1
20210124061036 31 261 10.0 19.0 0.00 0.01 0.00 88 999.1
20210124060529 31 253 10.0 19.0 0.00 0.01 0.00 88 999.0
20210124060115 31 272 10.0 19.0 0.00 0.01 0.00 88 998.7
20210124055527 31 262 11.0 19.0 0.00 0.01 0.00 87 998.7
20210124055029 32 252 11.0 20.0 0.00 0.01 0.00 87 998.6
20210124054531 32 259 11.0 20.0 0.00 0.01 0.00 87 998.4
20210124054029 32 273 11.0 19.0 0.00 0.01 0.00 87 998.3
20210124053536 32 257 11.0 19.0 0.00 0.01 0.00 87 998.3
20210124053029 32 248 11.0 19.0 0.00 0.01 0.00 88 998.3
20210124052537 32 273 11.0 24.0 0.00 0.01 0.00 88 998.1
20210124052028 32 279 10.0 24.0 0.00 0.01 0.00 88 998.0
20210124051530 32 240 10.0 24.0 0.00 0.01 0.00 88 997.9
20210124051025 32 262 11.0 24.0 0.00 0.01 0.00 88 997.8
20210124050531 32 259 10.0 21.0 0.00 0.01 0.00 88 997.7
20210124050043 32 267 10.0 21.0 0.00 0.01 0.00 88 997.7
20210124045532 32 271 9.0 21.0 0.00 0.01 0.00 88 997.6
20210124045023 32 265 10.0 21.0 0.00 0.01 0.00 88 997.6
20210124044528 33 271 11.0 20.0 0.00 0.01 0.00 88 997.5
20210124044023 33 250 10.0 20.0 0.00 0.01 0.00 88 997.4
20210124043527 33 271 10.0 24.0 0.00 0.01 0.00 88 997.3
20210124043031 33 280 10.0 24.0 0.00 0.01 0.00 88 997.3
20210124042529 33 251 10.0 22.0 0.00 0.01 0.00 88 997.1
20210124042026 33 283 11.0 22.0 0.00 0.01 0.00 89 997.1
20210124041527 33 269 12.0 22.0 0.00 0.01 0.00 89 997.1
20210124041036 33 282 11.0 19.0 0.00 0.01 0.00 89 997.0
20210124040531 34 262 11.0 18.0 0.00 0.01 0.00 89 996.9
20210124040046 34 243 10.0 18.0 0.00 0.01 0.00 89 996.9
20210124035527 34 269 10.0 18.0 0.00 0.01 0.00 89 996.8
20210124035030 34 260 9.0 24.0 0.00 0.01 0.00 89 996.7
20210124034532 34 266 9.0 24.0 0.00 0.01 0.00 89 996.5
20210124034045 34 234 10.0 24.0 0.00 0.01 0.00 89 996.4
20210124033523 35 288 11.0 24.0 0.00 0.01 0.00 89 996.3
20210124033030 35 259 11.0 18.0 0.00 0.01 0.00 89 996.2